STARLINK-11177, 60118

Orbit data source: Space-Track

STARLINK-11177, 60118 is a payload satellite owned by SpaceX/Seattle (US) in LEO that was launched on Mon, 24 Jun 2024 UTC via an FALCON 9 launch vehicle from the Air Force Western Test Range (AFWTR). Payload-class satellites include a variety of spacecraft equipped with specific instruments for various scientific and technological missions. These include communications satellites like Starlink; space stations such as the ISS; scientific satellites like the Hubble; Earth observation satellites from companies like Planet Labs, Umbra, and HawkEye 360; GPS; miniature CubeSats for education and research; and military/defense satellites.

Loading next visibility...
Identifier
60118, 2024-118F
Orbit
LEO
Country
Flag of USUS
Related business
Manufacturer
SpaceX/Seattle
Mission
Operational Commercial Communications
Bus & Motor
STARLINK V2MD, Unknown motor
Mass
960 kg wet, ~910 kg dry
Launch date (UTC)
2024-06-24 (2 years ago)
Launch vehicle
FALCON 9
Launch site
Air Force Western Test Range (AFWTR)
Object type
Payload
Rocket body
Debris
Shape & HBR
Box + 2 Pan, 18.1 m
Radar Cross Section
36.964 m², Large (>1 m²)

Expand to show TLE details & history
Last TLE update: 5 hours ago

TLE from 5 hours ago
0 STARLINK-11177
1 60118U 24118F   26035.26813602  .00006421  00000-0  57824-4 0  9999
2 60118  53.1583  26.0483 0001539 123.7187 236.3978 15.69708431 92747
Epoch: 2026-02-04T06:26Z
TLE epoch observation values (Epoch: 2026-02-04T06:26:06.952Z)
Latitude
0.00002°
Longitude
155.08219°
Altitude
361.22 km
Speed
7.693 km/s
True Right ascension
01h 44m 11s
True Declination
0° 00' 00"
Sunlit
Object was in daylight at epoch
Visualization orbit readout
Latitude
Unknown
Longitude
Unknown
Altitude
Unknown
Speed
Unknown
Apparent Right ascension
Unknown
Apparent Declination
Unknown
Sunlit
N/A
Visualization observer readout
Local Sidereal Time
13:51:09
Azimuth
Unknown
Elevation
Unknown
Doppler factor
Unknown
Orbital elements
Apogee altitude
361.029 km
Perigee altitude
358.955 km
Semi-major axis
6,738.129 km
Eccentricity
0.00015
Inclination
53.1583°
RAAN
26.0483°
Arg. of periapsis
123.7187°
True anomaly
236.38311°
Mean anomaly
236.3978°
Eccentric anomaly
236.39046°
Mean motion
3.92405 °/min
Orbital period
91.74 mins
BSTAR
0.000057824
Loading maneuver chart data...
Computing Atmospheric mass density...
Loading historical data...
Loading historical data...
Loading historical data...
Loading historical data...
Loading historical data...
Loading historical data...
Loading historical data...

Documentation

Showing up to 5 results
|